Find Starlink 35211

NORAD ID: 65757 Int'l Des: 2025-216 Owner: SPXS Country: US Constellation: starlink operational
LEOCIRCULAR

Aktuelle Ansicht

3D-Globus wird geladen...

Über Starlink 35211

Beschreibung wird geladen...

Nächste Überflüge

Passes for default location (London). Set your location on the main map for personalized predictions.

Höhenverlauf

Loading altitude history...

Zweizeiliger Elementsatz

1 65757U 25216Z 26149.48797584 .00043134 00000-0 14589-2 0 9994
2 65757 53.1589 317.6247 0000708 85.1001 275.0081 15.30224973 38913
Epoch: 29. Mai 2026 • Age: 17 hours

Aktueller Status

Höhe 492.1 km
Geschwindigkeit 7.62 km/s
Subsatellitenpunkt -48.64°S, 122.57°W
Startdatum 25. Sept. 2025
Alter 0.6 years
Typ internet

Technische Details

Klassifizierung Payload
Masse 575.00 kg
Trockenmasse 530.00 kg
Gesamtmasse 575.00 kg
Länge 0.30 m
Durchmesser 4.10 m
Spannweite 29.00 m
Form Box + pan
Hersteller SPXS
Bus-Typ Starlink V2MO
Phasenstatus In Orbit
Besitzer/Staat SPXS/US

Most Searched